Weather History for KDXR - May, 2013

Change the Weather History Date:

Wednesday, May 15, 2013

  Actual Average Record
Temperature  
Mean Temperature 48 °F -  
Max Temperature 64 °F 70 °F 85 °F (1951)
Min Temperature 33 °F 46 °F 30 °F (1984)
Degree Days  
Heating Degree Days 17    
Moisture  
Dew Point 42 °F    
Average Humidity 74    
Maximum Humidity 93    
Minimum Humidity 46    
Precipitation  
Precipitation 0.03 in - - ()
Sea Level Pressure  
Sea Level Pressure 29.90 in    
Wind  
Wind Speed 3 mph (SSE)    
Max Wind Speed 15 mph    
Max Gust Speed 31 mph    
Visibility 10 miles    
Events Rain    
Averages and records for this station are not official NWS values.
T = Trace of Precipitation, MM = Missing Value Source: NWS Daily Summary

Daily Weather History Graph

Daily Weather History Graph

Search for Another Location

Airport or City:

Trip Planner

Search our weather history database for the weather conditions in past years. The results will help you decide how hot, cold, wet, or windy it might be!

Date:

Astronomy

May. 15, 2013 Rise Set
Actual Time 5:34 AM EDT 8:06 PM EDT
Civil Twilight 5:03 AM EDT 8:37 PM EDT
Nautical Twilight 4:24 AM EDT 9:17 PM EDT
Astronomical Twilight 3:40 AM EDT 10:01 PM EDT
Moon 10:08 AM EDT (5/15) No Moon Set
Length of Visible Light 15h 34m
Length of Day
14h 31m
Waxing Crescent, 26% of the Moon is Illuminated
May 15
Waxing Crescent
May 18
First Quarter
May 25
Full
May 31
Last Quarter
Jun 8
New

Hourly Weather History & Observations

Time (EDT) Temp. Windchill Dew Point Humidity Pressure Visibility Wind Dir Wind Speed Gust Speed Precip Events Conditions
12:53 AM 36.0 °F - 30.9 °F 82% 30.08 in 10.0 mi Calm Calm - N/A   Clear
1:53 AM 35.1 °F - 30.9 °F 85% 30.08 in 10.0 mi Calm Calm - N/A   Clear
2:53 AM 33.1 °F - 30.0 °F 89% 30.07 in 10.0 mi Calm Calm - N/A   Clear
3:53 AM 33.1 °F - 28.9 °F 85% 30.06 in 10.0 mi Calm Calm - N/A   Clear
4:53 AM 33.1 °F - 30.9 °F 92% 30.06 in 10.0 mi Calm Calm - N/A   Overcast
5:53 AM 33.1 °F - 30.0 °F 89% 30.06 in 10.0 mi Calm Calm - N/A   Scattered Clouds
6:53 AM 37.9 °F - 34.0 °F 86% 30.05 in 10.0 mi Calm Calm - N/A   Overcast
7:53 AM 43.0 °F 41.3 °F 36.0 °F 76% 30.04 in 10.0 mi NNE 3.5 mph - N/A   Mostly Cloudy
8:53 AM 53.1 °F - 42.1 °F 66% 30.01 in 10.0 mi ESE 5.8 mph - N/A   Mostly Cloudy
9:53 AM 57.9 °F - 37.0 °F 46% 29.99 in 10.0 mi SSE 15.0 mph 24.2 mph N/A   Mostly Cloudy
10:53 AM 57.9 °F - 41.0 °F 53% 29.98 in 10.0 mi South 11.5 mph 19.6 mph N/A   Mostly Cloudy
11:53 AM 57.0 °F - 42.1 °F 57% 29.98 in 10.0 mi South 9.2 mph - 0.00 in Rain Light Rain
12:53 PM 54.0 °F - 45.0 °F 72% 29.92 in 6.0 mi SE 5.8 mph - 0.02 in Rain Light Rain
1:53 PM 57.9 °F - 46.9 °F 67% 29.88 in 10.0 mi SSE 8.1 mph 18.4 mph 0.00 in   Partly Cloudy
2:53 PM 62.1 °F - 48.9 °F 62% 29.84 in 10.0 mi South 13.8 mph 31.1 mph 0.01 in   Partly Cloudy
3:53 PM 62.1 °F - 48.9 °F 62% 29.78 in 10.0 mi South 11.5 mph 19.6 mph N/A   Mostly Cloudy
4:53 PM 63.0 °F - 50.0 °F 63% 29.74 in 10.0 mi SSE 8.1 mph 18.4 mph N/A   Partly Cloudy
5:53 PM 63.0 °F - 50.0 °F 63% 29.74 in 10.0 mi Variable 6.9 mph 16.1 mph N/A   Clear
6:53 PM 63.0 °F - 50.0 °F 63% 29.71 in 10.0 mi Variable 6.9 mph - N/A   Clear
7:53 PM 61.0 °F - 50.0 °F 67% 29.70 in 10.0 mi Calm Calm - N/A   Clear
8:53 PM 57.9 °F - 50.0 °F 75% 29.71 in 10.0 mi Calm Calm - N/A   Clear
9:53 PM 54.0 °F - 50.0 °F 86% 29.72 in 9.0 mi Calm Calm - N/A   Clear
10:53 PM 52.0 °F - 48.9 °F 89% 29.73 in 7.0 mi Calm Calm - N/A   Clear
11:53 PM 50.0 °F - 48.0 °F 93% 29.72 in 6.0 mi Calm Calm - N/A   Clear